Regional Weather Roundup
Issued by NWS Kansas City/Pleasant Hill, MO

Home | Current Version | Previous Version | Text Only | Print | Product List | Glossary On
Versions: 1 2 3 4 5 6 7 8 9 10 11 12 13 14 15 16 17 18 19 20 21 22 23 24 25 26 27
000
ASUS43 KEAX 291410
RWREAX

WEATHER ROUNDUP FOR EASTERN KANSAS AND NORTHWEST MISSOURI
NATIONAL WEATHER SERVICE KANSAS CITY/PLEASANT HILL MO
900 AM CDT WED MAR 29 2017

KSZ040-057-103>105-MOZ028-029-037-043-291500-
...KANSAS CITY METROPOLITAN AREA...

CITY           SKY/WX    TMP DP  RH WIND       PRES   REMARKS
K.C. INTL      DRIZZLE   49  47  93 E21G31    29.85F FOG
K.C. DOWNTOWN  CLOUDY    50  48  93 E20G29    29.85F
LEES SUMMIT    CLOUDY    49  48  97 E18G29    29.85F
OLATHE - IXD   LGT RAIN  49  48  97 E22G33    29.79F
OLATHE - OJC   LGT RAIN  48  48 100 E20G28    29.80F FOG
LAWRENCE       LGT RAIN  50  49  96 NE18G26   29.80F FOG

$$

MOZ001>008-011>017-020>025-030>033-038>040-044>046-053-054-291500-
...NORTHERN AND CENTRAL MISSOURI...

CITY           SKY/WX    TMP DP  RH WIND       PRES   REMARKS
ST. JOSEPH     CLOUDY    49  47  93 E20G30    29.87F
MOSBY          CLOUDY    48  46  93 E21       29.88F
WARRENSBURG    CLOUDY    48  46  93 E16G23    29.88S
WHITEMAN AFB   CLOUDY    49  49 100 E12       29.87F
CLINTON        CLOUDY    52  50  93 E13G18    29.84F
SEDALIA        CLOUDY    52  51  97 E16G28    29.90F
WARSAW         NOT AVBL
CHILLICOTHE      N/A     48  46  93 E9G20     29.96F
KIRKSVILLE     RAIN      43  43 100 E15       30.03R FOG

$$

MOZ041-047>049-056>058-063>065-088>090-097-291500-
...EASTERN AND SOUTHERN MISSOURI...

CITY           SKY/WX    TMP DP  RH WIND       PRES   REMARKS
ST. LOUIS INTL CLOUDY    51  44  77 E13       30.04R
SPIRIT OF STL  CLOUDY    51  46  83 E7        30.03S
COLUMBIA       CLOUDY    49  48  97 NE14      30.00R FOG
JEFFERSON CITY CLOUDY    54  49  83 NE10      29.99F
ROLLA          CLOUDY    52  50  93 SE9       29.96R
OSAGE BEACH    CLOUDY    54  51  90 E12G18    29.90F
SPRINGFIELD    PTSUNNY   57  52  83 SE23G38   29.81F
BRANSON        CLOUDY    55  54  94 SE12G21   29.85S
JOPLIN         RAIN      57  55  93 SE18G25   29.75R FOG
WEST PLAINS    CLOUDY    56  52  86 E13       29.93F

$$

IAZ060-094-KSZ022-034>040-054-083-096-NEZ052-066-093-291500-
...KANSAS...SOUTHEAST NEBRASKA AND IOWA...

CITY           SKY/WX    TMP DP  RH WIND       PRES   REMARKS
TOPEKA         LGT RAIN  50  49  96 E21G28    29.79F
MANHATTAN      LGT RAIN  50  49  96 NE20G28   29.78F FOG
EMPORIA        HVY RAIN  50  50 100 NE16G26   29.68F FOG
CHANUTE        CLOUDY    56  53  90 E22G32    29.61F
WICHITA        CLOUDY    53  52  96 NE16      29.60F
OMAHA          LGT RAIN  46  41  82 NE15G22   30.02S
LINCOLN        LGT RAIN  46  44  93 NE17      29.98F FOG
FALLS CITY     CLOUDY    47  46  97 NE15      29.89F
LAMONI         LGT RAIN  44  42  93 E12G22    29.99F FOG
DES MOINES     LGT RAIN  43  40  89 E15       30.06S FOG

$$





USA.gov is the U.S. government's official web portal to all federal, state and local government web resources and services.